Regional Weather Roundup
Issued by NWS

Home | Current Version | Previous Version | Graphics & Text | Print | Product List | Glossary On
Versions: 1 2 3 4 5 6 7 8 9 10 11 12 13 14 15 16 17 18 19 20 21 22 23 24 25 26 27 28 29 30 31 32 33 34 35 36 37 38 39 40 41 42 43 44 45 46 47 48 49 50
000
ASUS43 KDMX 220207
RWRIA

WEATHER ROUNDUP FOR IOWA
NATIONAL WEATHER SERVICE DES MOINES IA
800 PM CST SUN DEC 21 2014

NOTE: "FAIR" INDICATES FEW OR NO CLOUDS BELOW 12,000 FEET WITH NO
SIGNIFICANT WEATHER AND/OR OBSTRUCTIONS TO VISIBILITY.

* - THESE STATIONS ARE NOT NWS STATIONS...THUS NOT UNDER NWS
QUALITY CONTROL.  THEY ALSO DO NOT REPORT WEATHER SUCH
AS PRECIPITATION OR FOG.

IAZ001>003-012>014-020>022-031>034-043>046-220300-
   NORTHWEST IOWA

CITY           SKY/WX    TMP DP  RH WIND       PRES   REMARKS
CARROLL *      CLOUDY    39  39 100 S17       29.72R FOG     WCI  30
CHEROKEE *     CLOUDY    39  39 100 S14       29.66F FOG     WCI  31
DENISON *      CLOUDY    41  41 100 S13G20    29.67F FOG
LE MARS *      CLOUDY    39  39 100 S14       29.64S FOG     WCI  31
ORANGE CITY *  CLOUDY    39  37  93 S15       29.63S FOG     WCI  31
SHELDON *      CLOUDY    37  37 100 S17G25    29.62F FOG     WCI  28
SIOUX CITY     CLOUDY    41  39  93 S10       29.64F FOG
SPENCER        CLOUDY    38  36  92 S18       29.66F FOG     WCI  28
STORM LAKE *   FOG       37  37 100 S18       29.68F VSB 3/4 WCI  27
$$

IAZ055>058-069>071-079>083-090>094-220300-
   SOUTHWEST IOWA

CITY           SKY/WX    TMP DP  RH WIND       PRES   REMARKS
ATLANTIC *     CLOUDY    41  41 100 S13G18    29.72F FOG
AUDUBON *      CLOUDY    39  36  87 S14       29.73S FOG     WCI  31
CLARINDA *     CLOUDY    43  41  93 S10G17    29.76S
COUNCIL BLFS * CLOUDY    41  41 100 S15G22    29.68F FOG
CRESTON *      CLOUDY    41  41 100 S17       29.76S
HARLAN  *      CLOUDY    41  41 100 S16       29.73F FOG
LAMONI         CLOUDY    42  40  92 S12G23    29.79S
RED OAK *      CLOUDY    41  41 100 S13G20    29.73F FOG
SHENANDOAH *   CLOUDY    43  43 100 S14G20    29.73F FOG
$$

IAZ047>049-059>061-072>074-084-220300-
   CENTRAL IOWA

CITY           SKY/WX    TMP DP  RH WIND       PRES   REMARKS
AMES           CLOUDY    40  37  89 S12       29.78F WCI  33
ANKENY *       CLOUDY    43  39  87 S12       29.79S
CHARITON *     CLOUDY    41  39  93 S17       29.80F
DES MOINES     DRIZZLE   43  38  82 S15       29.79F
GRINNELL*      CLOUDY    39  37  93 SE16      29.82F WCI  30
KNOXVILLE *    CLOUDY    43  39  87 S14       29.80F
MARSHALLTOWN   CLOUDY    39  37  92 SE14      29.80S WCI  31
PELLA *        CLOUDY    41  39  93 S13G18    29.84S
PERRY *        CLOUDY    41  39  93 S13       29.75F
$$

IAZ004>006-015-016-023>025-035-036-220300-
   NORTH CENTRAL IOWA

CITY           SKY/WX    TMP DP  RH WIND       PRES   REMARKS
ALGONA *       CLOUDY    37 N/A N/A S17G24    29.71S HAZE    WCI  28
CLARION *      CLOUDY    37  37 100 S17       29.74F FOG     WCI  28
ESTHERVILLE    CLOUDY    37  36  96 S20       29.67S FOG     WCI  27
FORT DODGE *   CLOUDY    39  36  87 S12       29.74S WCI  32
MASON CITY     CLOUDY    37  36  96 S14       29.77F FOG     WCI  28
FOREST CITY *  CLOUDY    37  36  93 SE16      29.74F WCI  28
IOWA FALLS *   CLOUDY    39  37  93 SE14      29.78F WCI  31
$$

IAZ007>011-017>019-026>030-037>042-050>054-066-220300-
   NORTHEAST IOWA

CITY           SKY/WX    TMP DP  RH WIND       PRES   REMARKS
CEDAR RAPIDS   CLOUDY    38  36  92 SE13      29.87F WCI  30
CHARLES CITY * CLOUDY    37  37 100 SE14      29.80F FOG     WCI  29
CLINTON *      CLOUDY    36  28  75 S18G24    29.99R WCI  25
DECORAH *      CLOUDY    36  36 100 S14       29.83F FOG     WCI  27
DUBUQUE        CLOUDY    34  31  88 S20G29    29.91S FOG     WCI  23
MONTICELLO *   CLOUDY    37  36  93 SE17      29.90F WCI  28
OELWEIN *      CLOUDY    36  36 100 SE16      29.84F FOG     WCI  26
WATERLOO       CLOUDY    38  37  97 SE14      29.82F WCI  30
$$

IAZ064-065-067-068-078-220300-
   EAST CENTRAL IOWA

CITY           SKY/WX    TMP DP  RH WIND       PRES   REMARKS
DAVENPORT      CLOUDY    35  30  82 S17       29.96S WCI  25
IOWA CITY      CLOUDY    38  35  89 SE15G22   29.91F WCI  29
MT. PLEASANT * CLOUDY    37  34  87 SE16      29.91F WCI  28
MUSCATINE *    CLOUDY    39  34  81 SE15G22   29.93F WCI  31
QUAD CITIES    CLOUDY    36  31  82 SE14G23   29.96F WCI  27
$$

IAZ062-063-075>077-085>089-095>099-220300-
   SOUTHEAST IOWA

CITY           SKY/WX    TMP DP  RH WIND       PRES   REMARKS
BURLINGTON     CLOUDY    39  33  79 S10G20    29.93F WCI  32
FAIRFIELD *    CLOUDY    39  37  93 SE13      29.88F WCI  32
FORT MADISON * CLOUDY    41  37  87 SE14      29.93F
KEOKUK *       CLOUDY    41  36  81 SE7G13    29.91F
OSKALOOSA *    CLOUDY    39  37  93 SE14      29.85F FOG     WCI  31
CENTERVILLE *  LGT RAIN  39  39 100 SE13      29.85F WCI  32
OTTUMWA        CLOUDY    41  38  89 S14       29.86S
WASHINGTON *   CLOUDY    39  39 100 SE15      29.89F WCI  31
$$

ABBREVIATIONS USED IN REMARKS
   TC - TEMPERATURES IN CELSIUS
  WCI - WIND CHILL INDEX
   HX - HEAT INDEX
  VSB - VISIBILITY
$$



USA.gov is the U.S. government's official web portal to all federal, state and local government web resources and services.